This is the latest recevied weather packets stored in our database for station/object KE0WPC. If no packets are shown the sender has not sent any weather packets the latest 10 day(s).
| Time | Temp. | Humidity | Pressure | Rain* | Wind** | Luminosity | Snow |
|---|---|---|---|---|---|---|---|
| 1777837079 | 21.11° C | 24% | 1010.7 hPa | - | - | - | - |
| 1777836775 | 20.56° C | 25% | 1010.7 hPa | - | - | - | - |
| 1777836471 | 20.56° C | 25% | 1011.1 hPa | - | - | - | - |
| 1777836167 | 20.56° C | 25% | 1011.1 hPa | - | - | - | - |
| 1777835863 | 20.56° C | 28% | 1011.1 hPa | - | - | - | - |
| 1777835560 | 20.56° C | 28% | 1011.1 hPa | - | - | - | - |
| 1777835257 | 20.56° C | 28% | 1011.1 hPa | - | - | - | - |
| 1777834953 | 20.56° C | 28% | 1011.1 hPa | - | - | - | - |
| 1777834651 | 20.56° C | 28% | 1011.1 hPa | - | - | - | - |
| 1777834346 | 20.56° C | 26% | 1011.1 hPa | - | - | - | - |
| 1777834041 | 20.56° C | 29% | 1011.1 hPa | - | - | - | - |
| 1777833737 | 20° C | 29% | 1011.5 hPa | - | - | - | - |
| 1777833434 | 20° C | 28% | 1011.5 hPa | - | - | - | - |
| 1777833131 | 20° C | 28% | 1011.5 hPa | - | - | - | - |
| 1777832829 | 20° C | 29% | 1011.1 hPa | - | - | - | - |
| 1777832528 | 20° C | 31% | 1011.1 hPa | - | - | - | - |
| 1777832224 | 19.44° C | 29% | 1011.9 hPa | - | - | - | - |
| 1777831921 | 19.44° C | 29% | 1011.9 hPa | - | - | - | - |
| 1777831617 | 19.44° C | 28% | 1011.9 hPa | - | - | - | - |
| 1777831316 | 19.44° C | 28% | 1011.9 hPa | - | - | - | - |
| 1777831012 | 20° C | 29% | 1012.2 hPa | - | - | - | - |
| 1777830710 | 20° C | 30% | 1012.2 hPa | - | - | - | - |
| 1777830406 | 19.44° C | 31% | 1011.9 hPa | - | - | - | - |
| 1777830103 | 18.89° C | 33% | 1012.2 hPa | - | - | - | - |
| 1777829798 | 18.89° C | 31% | 1012.2 hPa | - | - | - | - |
* Rain since midnight (hover to see other rain measurements)
** Current wind speed in m/s (hover to see current wind gust speed)